Regional Weather Roundup
Issued by NWS Newport/Morehead, NC

Home | Current Version | Previous Version | Text Only | Print | Product List | Glossary On
Versions: 1 2 3 4 5 6 7 8 9 10 11 12 13 14 15 16 17 18 19 20 21 22 23 24 25 26 27 28 29 30 31 32 33 34 35 36 37 38 39 40 41 42 43 44 45 46 47 48 49 50
000
ASUS42 KMHX 231125
RWRMHX
WEATHER ROUNDUP FOR EASTERN NORTH CAROLINA
NATIONAL WEATHER SERVICE NEWPORT/MOREHEAD CITY NC
700 AM EDT SAT SEP 23 2017

NOTE: "FAIR" INDICATES FEW OR NO CLOUDS BELOW 12,000 FEET
WITH NO SIGNIFICANT WEATHER AND/OR OBSTRUCTIONS TO VISIBILITY

NCZ015>017-031-032-045>047-102-103-231200-
NORTH COAST

CITY           SKY/WX    TMP DP  RH WIND       PRES   REMARKS
EDENTON        MOCLDY    64  62  94 CALM      30.03R FOG
ELIZABETH CITY CLEAR     64  64 100 W3        30.02R FOG
KITTY HAWK     SUNNY     68  67  98 CALM      30.00R
MANTEO         CLEAR     63  62  99 CALM      30.01R

$$

NCZ045>047-081-094-103-104-231200-
CENTRAL COAST

CITY           SKY/WX    TMP DP  RH WIND       PRES   REMARKS
FRISCO         PTCLDY    71  70  96 E3        30.01R FOG

$$

NCZ095-097-098-100-101-231200-
SOUTHERN COAST

CITY           SKY/WX    TMP DP  RH WIND       PRES   REMARKS
BEAUFORT       CLEAR     72  71  97 NW3       30.01R
CEDAR ISLAND   NOT AVBL
JACKSONVILLE   CLEAR     67  67 100 CALM      30.01R FOG
PINEY ISLAND     N/A    N/A N/A N/A CALM      30.01R
WILMINGTON     FOG       69  68  96 N3        30.02R VSB 1/4


$$

NCZ011>013-027>030-043-044-078>080-089-090>093-098-231200-
COASTAL PLAIN

CITY           SKY/WX    TMP DP  RH WIND       PRES   REMARKS
AHOSKIE        FOG       60  60 100 CALM      30.04R VSB<1/4
CLINTON        PTCLDY    64  64 100 CALM      30.03R
ELIZABETHTOWN  NOT AVBL
GOLDSBORO      CLEAR     66  66 100 CALM      30.01R FOG
GREENVILLE     HVY RAIN  64  63  94 CALM      30.04S VSB<1/4
HAVELOCK       CLEAR     68  68 100 NW3       30.02R
KENANSVILLE    CLEAR     63  61  94 CALM      30.03R FOG
KINSTON        CLEAR     64  63  94 CALM      30.03R
NEW BERN       CLEAR     66  66 100 CALM      30.03R
RICHLANDS      CLEAR     64  63  94 CALM      30.03R FOG
ROCKY MOUNT    FOG       63  63 100 CALM      30.04R VSB 1/4
WASHINGTON     PTCLDY    63  63  97 CALM      30.03R FOG
WHITEVILLE     CLEAR     67  66  98 CALM      30.03R FOG

$$

AMZ130-135-150-152-154-156-158-170-250-252-270-ANZ085-086-088-633-658-670-231200-
MARINE OBSERVATIONS

STATION/POSITION TIME  TEMP    WIND        PRES    WAVE   SWELL
                       AIR SEA DIR/SP/G            HT/PER HT/PER
                 (UTC) (F)     (DEG/KT/KT) (MB)    (FT/S) (FT/S)
CHESAPEAKE LIGHT NOT AVBL
64 E VA BEACH    1050   70 69  280/  8/ 10 1016.0    9/15   8/15
DUCK             1100   73 76  300/  5/  6 1015.8
2 E DUCK         1100      75                N/A     6/11   3/11
OREGON INLET     1100   71 78  360/  2/  3 1015.9
13E OREGON INLT  1048      74                N/A     7/11   7/11
HATTERAS CG      1100   76 79  220/  2/  2 1016.0
DIAMOND BUOY     1050   75 76   50/  4/  6 1016.0    8/13   7/13
CAPE LOOKOUT     1100   76     300/  4/  5 1016.0
BEAUFORT LAB     1100   74 77  310/  4/  6 1015.7
30 SE NEW RVR IN 1108   77      10/  8/ 10 1016.1
30 SE NEW RVR IN NOT AVBL
27 SE WRIGHTSVLE 1108   78 80   20/  8/ 14 1016.2
5 SE WRIGHTSVLE  1108   75 79   20/ 10/ 16 1016.1
225 S CAPE HAT   1050   78 79   60/ 14/ 16 1013.9   10/12  10/12
41 SE CHARLESTON 1110   80 82   40/ 10/ 14 1014.7

$$




USA.gov is the U.S. government's official web portal to all federal, state and local government web resources and services.